Regional Weather Roundup
Issued by NWS

Home | Current Version | Previous Version | Graphics & Text | Print | Product List | Glossary On
Versions: 1 2 3 4 5 6 7 8 9 10 11 12 13 14 15 16 17 18 19 20 21 22 23 24 25 26 27 28 29 30 31 32 33 34 35 36 37 38 39 40 41 42 43 44 45 46 47 48 49 50
000
ASUS43 KMPX 230501
RWRMN
WEATHER ROUNDUP FOR MINNESOTA
NATIONAL WEATHER SERVICE TWIN CITIES/CHANHASSEN MN
1200 AM CDT SUN JUL 23 2017


NOTE: "FAIR" INDICATES FEW OR NO CLOUDS BELOW 12,000 FEET WITH NO
SIGNIFICANT WEATHER AND/OR OBSTRUCTIONS TO VISIBILITY. N/A MEANS
CURRENT SKY AND/OR WEATHER CONDITIONS ARE NOT AVAILABLE.

MNZ060>063-068>070-230600-
   Twin Cities Metro

CITY           SKY/WX    TMP DP  RH WIND       PRES   REMARKS
TWIN CITIES    PTCLDY    75  60  59 W3        29.84S
ST PAUL        CLEAR     72  65  78 CALM      29.84S
CRYSTAL        CLEAR     69  61  75 CALM      29.83S
BLAINE         CLEAR     70  63  78 CALM      29.85R
LAKEVILLE      CLEAR     64  64 100 CALM      29.85S
EDEN PRAIRIE   CLEAR     73  62  68 CALM      29.84S
SOUTH ST PAUL  CLEAR     72  64  74 CALM      29.84S
LAKE ELMO      FAIR      66  63  88 CALM      29.85S
$$
MNZ001>005-007-008-013>017-022>024-027-028-230600-
   Northwest Minnesota

CITY           SKY/WX    TMP DP  RH WIND       PRES   REMARKS
BEMIDJI        CLEAR     60  56  86 NW6       29.87F
HALLOCK        CLOUDY    63  61  94 NW8       29.89S
ROSEAU         PTCLDY    59  54  82 W7        29.87R
WARROAD        PTCLDY    59  55  88 W7        29.86S
THIEF RVR FALL CLOUDY    61  60  97 NW9       29.89S
CROOKSTON      CLEAR     63  59  88 NW10      29.90S
FOSSTON        MOCLDY    61  57  88 NW8       29.90S
DETROIT LAKES  CLEAR     63  57  82 NW6       29.92S
MOORHEAD       PTCLDY    63  57  82 NW3       29.91S
PARK RAPIDS    CLEAR     62  57  83 NW8       29.89R
MAHNOMEN       FAIR      60  57  91 NW5       29.90S
$$
MNZ006-009>011-018-025>026-230600-
   North Central Minnesota

CITY           SKY/WX    TMP DP  RH WIND       PRES   REMARKS
BAUDETTE       CLOUDY    62  61  96 NW6       29.83S
FLAG ISLAND    CLEAR     64  61  88 N12       29.84R FOG
INTL FALLS     PTCLDY    62  59  90 CALM      29.81F
WASKISH        CLEAR     63  59  88 NW12      29.85S
BIG FORK       CLEAR     61  57  88 CALM      29.84S
LONGVILLE      CLEAR     66  57  72 W3        29.86S
GRAND RAPIDS   CLOUDY    66  56  70 NW9       29.86S
CRANE LAKE     RAIN      59  57  94 CALM      29.84R
ORR            CLOUDY    63  57  82 CALM      29.81R
COOK           MOCLDY    63  59  88 CALM      29.84R THUNDER
WALKER         FAIR      61  56  82 W6        29.87S
$$
MNZ012-019>021-037-230600-
   Northeast Minnesota

CITY           SKY/WX    TMP DP  RH WIND       PRES   REMARKS
DULUTH         CLOUDY    54  54 100 SE7       29.84S
ELY            CLOUDY    61  61 100 S3        29.82S
HIBBING        CLOUDY    63  54  72 W6        29.82S
EVELETH        CLOUDY    65  47  52 W7        29.84R
DULUTH HARBOR  CLOUDY    57  55  94 NE7       29.85S
TWO HARBORS    CLOUDY    57  52  82 NE3       29.83S
GRAND MARAIS     N/A     58  55  90 CALM      29.84R
G MARAIS ARPRT CLOUDY    54  50  87 N5        29.87R
$$
MNZ029>031-032-039>041-046>048-054>057-064-230600-
   West Central Minnesota

CITY           SKY/WX    TMP DP  RH WIND       PRES   REMARKS
FERGUS FALLS   MOCLDY    66  57  72 N6        29.91R
WHEATON        MOCLDY    68  61  77 NW6       29.94R
MORRIS         CLEAR     70  61  73 N7        29.90R
ALEXANDRIA     CLOUDY    70  62  76 NW5       29.92R
ELBOW LAKE     CLOUDY    69  62  78 N7        29.92R
WADENA         CLEAR     64  55  72 NW3       29.89S
GLENWOOD       MOCLDY    70  63  78 NW6       29.91R
APPLETON       CLEAR     70  61  73 N5        29.89R
BENSON         CLEAR     66  61  82 N3        29.90R
ORTONVILLE     CLEAR     68  61  77 N9        29.91R
MADISON        CLEAR     72  70  94 N8        29.89R
WILLMAR        FAIR      68  64  88 N3        29.89R
$$
MNZ033>034-036-042>043-049>051-058-059-230600-
   Central Minnesota

CITY           SKY/WX    TMP DP  RH WIND       PRES   REMARKS
ST CLOUD       MOCLDY    66  64  93 CALM      29.87R
SAUK CENTRE    CLOUDY    65  62  90 CALM      29.90R
PAYNESVILLE    PTCLDY    63  61  94 CALM      29.89R
AITKIN         MOCLDY    63  55  77 SW3       29.84S
PINE RIVER     PTCLDY    66  55  68 NW3       29.91R
BRAINERD       PTCLDY    69  55  60 NW6       29.87R
STAPLES        PTCLDY    63  55  77 W3        29.89R
LONG PRAIRIE   CLOUDY    68  59  73 W5        29.90R
LITTLE FALLS   PTCLDY    68  54  60 NW3       29.88R
LITCHFIELD     PTCLDY    70  64  83 CALM      29.88R
BUFFALO        PTCLDY    67  60  78 CALM      29.87S
MAPLE LAKE     PTCLDY    64  62  92 CALM      29.87S
HUTCHINSON     CLEAR     66  65  96 CALM      29.87S
$$
MNZ037-044-045-052-053-230600-
   East Central Minnesota

CITY           SKY/WX    TMP DP  RH WIND       PRES   REMARKS
PRINCETON      PTCLDY    64  63  94 CALM      29.86S
MORA           PTCLDY    64  57  77 W3        29.86S
CAMBRIDGE      PTCLDY    70  57  64 CALM      29.84R
RUSH CITY      PTCLDY    63  59  86 CALM      29.84S
MOOSE LAKE     CLOUDY    61  55  82 CALM      29.82R
HINCKLEY       MOCLDY    66  55  68 NW3       29.84S
CLOQUET        FOG       55  54  94 SE3       29.84S VSB 1/4
MCGREGOR       CLOUDY    66  55  68 W3        29.85R
$$
MNZ071>073-080-081-089-090-097-098-230600-
   Southwest Minnesota

CITY           SKY/WX    TMP DP  RH WIND       PRES   REMARKS
MONTEVIDEO     CLEAR     68  61  77 N7        29.88R
GRANITE FALLS  CLEAR     68  66  92 CALM      29.88R
CANBY          CLEAR     72  62  70 CALM      29.90R
MARSHALL       CLEAR     70  62  76 SW8       29.88S
REDWOOD FALLS  CLEAR     71  66  84 SW3       29.85F
OLIVIA         CLEAR     70  64  83 CALM      29.86S
PIPESTONE      CLEAR     70  63  78 N5        29.93S
WINDOM         CLEAR     70  64  83 CALM      29.90S
WORTHINGTON    CLEAR     67  63  87 W7        29.92S
JACKSON        PTCLDY    70  63  78 CALM      29.91S
SLAYTON        CLEAR     69  60  74 CALM      29.92F
$$
MNZ065>067-074>077-082>085-091>093-230600-
   South Central Minnesota

CITY           SKY/WX    TMP DP  RH WIND       PRES   REMARKS
MANKATO        CLEAR     70  66  87 SW3       29.87F
NEW ULM        CLEAR     72  66  83 CALM      29.86F
ST JAMES       CLEAR     70  70 100 CALM      29.88F
FAIRMONT       CLEAR     70  69  97 CALM      29.89S
GLENCOE        CLEAR     68  67  95 CALM      29.85S
FARIBAULT      CLEAR     70  64  83 CALM      29.87S
OWATONNA       PTCLDY    70  66  88 CALM      29.87F
WASECA         CLEAR     66  64  94 CALM      29.89S
ALBERT LEA     CLEAR     72  68  88 CALM      29.89S
$$
MNZ078>079-086>088-094>096-230600-
   Southeast Minnesota

CITY           SKY/WX    TMP DP  RH WIND       PRES   REMARKS
ROCHESTER      CLEAR     69  68  96 NW6       29.88S
RED WING       CLEAR     68  63  83 CALM      29.83S
STANTON        CLEAR     67  64  90 CALM      29.84S
DODGE CENTER   CLEAR     72  64  78 CALM      29.88S
WINONA         CLEAR     70  68  94 CALM      29.85R
AUSTIN         CLEAR     72  66  83 CALM      29.88S
PRESTON        CLEAR     69  66  92 NW5       29.88S
$$
ABBREVIATIONS USED IN REMARKS
   TC - TEMPERATURES IN CELSIUS
  WCI - WIND CHILL INDEX
   HX - HEAT INDEX
  VSB - VISIBILITY
$$



USA.gov is the U.S. government's official web portal to all federal, state and local government web resources and services.